#timestamp,LO_Frequency,Hit,StdDev 
1619694015.2,286047002.7,N
1619694035.1,286047001.4,N
1619694036.0,286047001.4,N
1619694055.8,286047006.0,N
1619694075.6,286047006.7,N
1619694095.5,286047007.2,N
1619694115.3,286047005.6,N
1619694135.2,286047004.2,N
1619694155.9,286047002.0,N
1619694175.7,286047003.9,N
1619694195.6,286047003.9,N
1619694215.4,286047003.0,N
1619694235.2,286047002.5,N
1619694255.1,286047000.8,N
1619694256.0,286047000.8,N
1619694275.8,286047000.6,N
1619694295.7,286047002.8,N
1619694315.5,286047000.1,N
1619694335.3,286046999.5,N
1619694355.2,286046999.5,N
1619694375.9,286046999.1,N
1619694395.7,286046997.0,N
1619694415.6,286046996.9,N
1619694435.4,286046998.9,N
1619694455.3,286046998.8,N
1619694475.1,286047000.1,N
1619694476.0,286047000.1,N
1619694495.8,286047000.7,N
1619694515.7,286047001.0,N
1619694535.5,286046998.6,N
1619694555.4,286046998.6,N
1619694575.2,286046997.7,N
1619694595.0,286046997.5,N
1619694595.9,286046997.5,N
1619694615.8,286046998.0,N
1619694635.6,286046995.2,N
1619694655.4,286046999.6,N
1619694675.3,286046999.2,N
1619694695.1,286046998.8,N
1619694715.9,286047002.5,N
1619694735.7,286047002.0,N
1619694755.5,286047002.3,N
1619694775.4,286047000.8,N
1619694795.2,286046999.1,N
1619694815.0,286046998.6,N
1619694815.9,286046998.6,N
1619694835.8,286046999.1,N
1619694855.6,286046999.1,N
1619694875.5,286046996.9,N
1619694895.3,286046997.7,N
1619694915.1,286046997.1,N
1619694935.9,286046996.7,N
1619694955.7,286046997.6,N
1619694975.5,286046996.9,N
1619694995.4,286046998.5,N
1619695015.2,286046996.7,N
1619695035.1,286046997.3,N
1619695036.0,286046997.3,N
1619695055.8,286046996.7,N
1619695075.6,286047008.4,Y
1619695095.5,286047008.7,P
1619695115.3,286047005.1,N
1619695135.1,286047003.8,N
1619695155.9,286046999.9,N
1619695175.7,286046999.4,N
1619695195.6,286047001.2,N
1619695215.4,286047000.7,N
1619695235.2,286047000.3,N
1619695255.1,286046998.1,N
1619695256.0,286046998.1,N
1619695275.8,286047001.1,N
1619695295.6,286046997.2,N
1619695315.5,286046997.0,N
1619695335.3,286046996.8,N
1619695355.2,286046999.5,N
1619695375.9,286046999.6,N
1619695395.7,286046996.9,N
1619695415.6,286046997.7,N
1619695435.4,286046997.6,N
1619695455.2,286046999.1,N
1619695475.1,286046997.6,N
1619695476.0,286046997.6,N
1619695495.8,286046997.5,N
1619695515.7,286046997.4,N
1619695535.5,286046998.0,N
1619695555.3,286046997.7,N
1619695575.2,286046997.4,N
1619695595.0,286046997.5,N
1619695595.9,286046997.5,N
1619695615.8,286046998.0,N
1619695635.6,286046997.6,N
1619695655.4,286046995.0,N
1619695675.3,286046994.4,Y
1619695695.1,286046996.4,P
1619695715.9,286046996.0,P
1619695735.7,286046996.1,P
1619695755.5,286046995.8,Y
1619695775.4,286046998.5,P
1619695795.2,286046998.1,N
1619695815.1,286047000.5,N
1619695816.0,286047000.5,N
1619695835.8,286047000.2,N
1619695855.6,286047002.3,N
1619695875.5,286047000.3,N
1619695895.3,286046998.1,N
1619695915.2,286046999.4,N
1619695935.9,286046996.9,N
1619695955.7,286046997.8,N
1619695975.6,286046999.3,N
1619695995.4,286046996.6,N
1619696015.3,286046997.4,N
1619696035.1,286046999.1,N
1619696036.0,286046999.1,N
1619696055.8,286046996.5,N
1619696075.7,286046996.6,N
1619696095.5,286046997.7,N
1619696115.4,286047001.1,N
1619696135.2,286046998.3,N
1619696155.0,286046998.3,N
1619696155.9,286046998.3,N
1619696175.8,286046999.0,N
1619696195.6,286046998.2,N
1619696215.4,286046999.3,N
1619696235.3,286046998.2,N
1619696255.1,286046999.2,N
1619696275.9,286046999.2,N
1619696295.7,286046999.1,N
1619696315.5,286046999.2,N
1619696335.4,286046997.4,N
1619696355.2,286046998.9,N
1619696375.0,286046998.8,N
1619696375.9,286046998.8,N
1619696395.8,286046996.8,N
1619696415.6,286046997.2,N
1619696435.5,286046997.6,N
1619696455.3,286046997.5,N
1619696475.1,286046995.2,Y
1619696495.9,286046996.9,P
1619696515.7,286046997.0,P
1619696535.6,286046997.5,P
1619696555.4,286046996.8,Y
1619696575.2,286047000.6,P
1619696595.1,286047001.5,N
1619696596.0,286047001.5,N
1619696615.8,286047004.2,N
1619696635.6,286047003.6,N
1619696655.5,286047005.1,N
1619696675.3,286047005.5,N
1619696695.2,286047005.8,N
1619696715.9,286047002.9,N
1619696735.7,286047005.7,N
1619696755.6,286047005.1,N
1619696775.4,286047005.4,N
1619696795.2,286047003.8,N
1619696815.1,286047003.6,N
1619696816.0,286047003.6,N
1619696835.8,286047005.6,N
1619696855.7,286047005.2,N
1619696875.5,286047004.8,N
1619696895.3,286047003.6,N
1619696915.2,286047004.1,N
1619696935.0,286047001.3,N
1619696935.9,286047001.3,N
1619696955.7,286047001.5,N
1619696975.6,286047001.8,N
1619696995.4,286047004.3,N
1619697015.3,286047003.5,N
1619697035.1,286047003.6,N
1619697036.0,286047003.6,N
1619697055.8,286047002.9,N
1619697075.7,286047004.7,N
1619697095.5,286047005.3,Y
1619697115.3,286046999.7,P
1619697135.2,286046998.6,N
1619697155.0,286046998.6,N
1619697155.9,286046998.6,N
1619697175.8,286046998.8,N
1619697195.6,286046999.4,N
1619697215.5,286046999.3,N
1619697235.3,286046998.5,N
1619697255.1,286046998.7,N
1619697275.9,286046999.5,N
1619697295.7,286046997.3,N
1619697315.6,286046997.2,N
1619697335.4,286046996.8,N
1619697355.2,286046997.7,N
1619697375.1,286046998.1,N
1619697376.0,286046998.1,N
1619697395.8,286046998.5,N
1619697415.6,286047002.7,N
1619697435.5,286047000.9,N
1619697455.3,286047001.2,N
1619697475.2,286046999.9,N
1619697495.9,286046999.7,N
1619697515.7,286047001.7,N
1619697535.6,286047000.2,N
1619697555.4,286047000.3,N
1619697575.3,286047000.9,N
1619697595.1,286047000.4,N
1619697596.0,286047000.4,N
